This is the latest recevied weather packets stored in our database for station/object SV2RCS-13. If no packets are shown the sender has not sent any weather packets the latest 10 day(s).
| Time | Temp. | Humidity | Pressure | Rain* | Wind** | Luminosity | Snow |
|---|---|---|---|---|---|---|---|
| 1777328215 | 15° C | 51% | 1017.7 hPa | - | - | - | - |
| 1777327617 | 15° C | 51% | 1017.7 hPa | - | - | - | - |
| 1777327016 | 15° C | 53% | 1017.8 hPa | - | - | - | - |
| 1777326415 | 15.56° C | 53% | 1017.7 hPa | - | - | - | - |
| 1777325818 | 15.56° C | 53% | 1017.4 hPa | - | - | - | - |
| 1777325215 | 15.56° C | 54% | 1016.7 hPa | - | - | - | - |
| 1777324615 | 15.56° C | 53% | 1017.7 hPa | - | - | - | - |
| 1777324015 | 15.56° C | 53% | 1017.8 hPa | - | - | - | - |
| 1777323415 | 15.56° C | 52% | 1017.9 hPa | - | - | - | - |
| 1777322815 | 15.56° C | 51% | 1017.7 hPa | - | - | - | - |
| 1777322216 | 15.56° C | 52% | 1017.8 hPa | - | - | - | - |
| 1777321616 | 15° C | 52% | 1018.1 hPa | - | - | - | - |
| 1777321015 | 15° C | 51% | 1018 hPa | - | - | - | - |
| 1777320415 | 15° C | 51% | 1017.9 hPa | - | - | - | - |
| 1777319816 | 15° C | 49% | 1018 hPa | - | - | - | - |
| 1777319215 | 15° C | 49% | 1017.9 hPa | - | - | - | - |
| 1777318615 | 15.56° C | 46% | 1017.6 hPa | - | - | - | - |
| 1777318015 | 15.56° C | 46% | 1017.7 hPa | - | - | - | - |
| 1777317416 | 15.56° C | 46% | 1017.8 hPa | - | - | - | - |
| 1777316815 | 15.56° C | 45% | 1017.7 hPa | - | - | - | - |
| 1777316216 | 16.11° C | 44% | 1017.4 hPa | - | - | - | - |
| 1777315616 | 16.11° C | 40% | 1017 hPa | - | - | - | - |
| 1777315016 | 16.11° C | 44% | 1017 hPa | - | - | - | - |
| 1777314416 | 16.11° C | 46% | 1016.8 hPa | - | - | - | - |
| 1777313816 | 16.67° C | 49% | 1016.8 hPa | - | - | - | - |
* Rain since midnight (hover to see other rain measurements)
** Current wind speed in m/s (hover to see current wind gust speed)